Time,TemperatureF,DewpointF,PressureIn,WindDirection,WindDirectionDegrees,WindSpeedMPH,WindSpeedGustMPH,Humidity,HourlyPrecipIn,Conditions,Clouds,dailyrainin,SoftwareType,DateUTC
2013-03-01 00:02:00,37.0,22.0,-100.00,NW,305,1.0,4.0,53,-99.99,,,-99.99,,2013-03-01 05:02:00,
2013-03-01 00:11:00,37.0,22.0,-100.00,WNW,285,2.0,4.0,55,-99.99,,,-99.99,,2013-03-01 05:11:00,
2013-03-01 00:22:00,36.0,22.0,-100.00,WNW,300,1.0,2.0,55,-99.99,,,-99.99,,2013-03-01 05:22:00,
2013-03-01 00:33:00,36.0,22.0,-100.00,NW,325,4.0,6.0,55,-99.99,,,-99.99,,2013-03-01 05:33:00,
2013-03-01 00:42:00,36.0,22.0,-100.00,NNE,15,0.0,5.0,55,-99.99,,,-99.99,,2013-03-01 05:42:00,
2013-03-01 00:52:00,36.0,22.0,-100.00,North,350,1.0,3.0,56,-99.99,,,-99.99,,2013-03-01 05:52:00,
2013-03-01 01:02:00,36.0,22.0,-100.00,NW,305,1.0,1.0,57,-99.99,,,-99.99,,2013-03-01 06:02:00,
2013-03-01 01:12:00,35.0,22.0,-100.00,West,265,0.0,1.0,58,-99.99,,,-99.99,,2013-03-01 06:12:00,
2013-03-01 01:22:00,35.0,22.0,-100.00,North,350,0.0,1.0,59,-99.99,,,-99.99,,2013-03-01 06:22:00,
2013-03-01 01:32:00,34.0,22.0,-100.00,NNE,15,0.0,1.0,60,-99.99,,,-99.99,,2013-03-01 06:32:00,
2013-03-01 01:42:00,34.0,23.0,-100.00,NW,315,1.0,3.0,62,-99.99,,,-99.99,,2013-03-01 06:42:00,
2013-03-01 01:52:00,34.0,23.0,-100.00,WNW,290,0.0,2.0,63,-99.99,,,-99.99,,2013-03-01 06:52:00,
2013-03-01 02:02:00,34.0,23.0,-100.00,West,280,1.0,1.0,63,-99.99,,,-99.99,,2013-03-01 07:02:00,
2013-03-01 02:12:00,34.0,23.0,-100.00,West,280,0.0,2.0,65,-99.99,,,-99.99,,2013-03-01 07:12:00,
2013-03-01 02:22:00,34.0,23.0,-100.00,SW,225,0.0,1.0,66,-99.99,,,-99.99,,2013-03-01 07:22:00,
2013-03-01 02:32:00,34.0,24.0,-100.00,ENE,70,1.0,1.0,66,-99.99,,,-99.99,,2013-03-01 07:32:00,
2013-03-01 02:42:00,34.0,24.0,-100.00,SE,130,1.0,1.0,66,-99.99,,,-99.99,,2013-03-01 07:42:00,
2013-03-01 02:52:00,33.0,24.0,-100.00,NE,55,1.0,2.0,67,-99.99,,,-99.99,,2013-03-01 07:52:00,
2013-03-01 03:02:00,33.0,24.0,-100.00,ENE,70,1.0,2.0,69,-99.99,,,-99.99,,2013-03-01 08:02:00,
2013-03-01 03:12:00,33.0,24.0,-100.00,ENE,75,1.0,2.0,71,-99.99,,,-99.99,,2013-03-01 08:12:00,
2013-03-01 03:22:00,33.0,24.0,-100.00,East,85,3.0,5.0,71,-99.99,,,-99.99,,2013-03-01 08:22:00,
2013-03-01 03:32:00,33.0,25.0,-100.00,NE,50,0.0,2.0,72,-99.99,,,-99.99,,2013-03-01 08:32:00,
2013-03-01 03:43:00,33.0,25.0,-100.00,NW,310,0.0,1.0,74,-99.99,,,-99.99,,2013-03-01 08:43:00,
2013-03-01 03:53:00,33.0,26.0,-100.00,West,270,0.0,3.0,77,-99.99,,,-99.99,,2013-03-01 08:53:00,
2013-03-01 04:02:00,32.0,27.0,-100.00,WSW,255,0.0,2.0,79,-99.99,,,-99.99,,2013-03-01 09:02:00,
2013-03-01 04:12:00,32.0,27.0,-100.00,West,260,0.0,1.0,81,-99.99,,,-99.99,,2013-03-01 09:12:00,
2013-03-01 04:22:00,32.0,27.0,-100.00,WSW,240,0.0,1.0,82,-99.99,,,-99.99,,2013-03-01 09:22:00,
2013-03-01 04:32:00,32.0,27.0,-100.00,WSW,240,0.0,0.0,83,-99.99,,,-99.99,,2013-03-01 09:32:00,
2013-03-01 04:42:00,31.0,27.0,-100.00,WSW,240,0.0,1.0,84,-99.99,,,-99.99,,2013-03-01 09:42:00,
2013-03-01 04:52:00,31.0,27.0,-100.00,WSW,240,0.0,0.0,85,-99.99,,,-99.99,,2013-03-01 09:52:00,
2013-03-01 05:02:00,31.0,28.0,-100.00,WSW,245,1.0,2.0,86,-99.99,,,-99.99,,2013-03-01 10:02:00,
2013-03-01 05:12:00,31.0,28.0,-100.00,WSW,245,1.0,1.0,87,-99.99,,,-99.99,,2013-03-01 10:12:00,
2013-03-01 05:22:00,31.0,28.0,-100.00,WSW,255,1.0,3.0,87,-99.99,,,-99.99,,2013-03-01 10:22:00,
2013-03-01 05:32:00,31.0,28.0,-100.00,West,260,2.0,4.0,87,-99.99,,,-99.99,,2013-03-01 10:32:00,
2013-03-01 05:42:00,31.0,28.0,-100.00,West,280,1.0,2.0,86,-99.99,,,-99.99,,2013-03-01 10:42:00,
2013-03-01 05:52:00,31.0,28.0,-100.00,WNW,290,1.0,3.0,86,-99.99,,,-99.99,,2013-03-01 10:52:00,
2013-03-01 06:02:00,31.0,28.0,-100.00,West,260,2.0,4.0,86,-99.99,,,-99.99,,2013-03-01 11:02:00,
2013-03-01 06:12:00,31.0,28.0,-100.00,WSW,255,1.0,4.0,86,-99.99,,,-99.99,,2013-03-01 11:12:00,
2013-03-01 06:23:00,31.0,28.0,-100.00,WSW,255,1.0,2.0,86,-99.99,,,-99.99,,2013-03-01 11:23:00,
2013-03-01 06:32:00,31.0,27.0,-100.00,WSW,245,0.0,2.0,86,-99.99,,,-99.99,,2013-03-01 11:32:00,
2013-03-01 06:42:00,31.0,27.0,-100.00,WSW,245,1.0,3.0,86,-99.99,,,-99.99,,2013-03-01 11:42:00,
2013-03-01 06:52:00,31.0,27.0,-100.00,West,260,1.0,1.0,86,-99.99,,,-99.99,,2013-03-01 11:52:00,
2013-03-01 07:02:00,31.0,27.0,-100.00,West,265,1.0,2.0,86,-99.99,,,-99.99,,2013-03-01 12:02:00,
2013-03-01 07:11:00,31.0,27.0,-100.00,WSW,245,0.0,3.0,86,-99.99,,,-99.99,,2013-03-01 12:11:00,
2013-03-01 07:22:00,30.0,27.0,-100.00,West,280,0.0,1.0,86,-99.99,,,-99.99,,2013-03-01 12:22:00,
2013-03-01 07:32:00,30.0,26.0,-100.00,South,185,0.0,0.0,86,-99.99,,,-99.99,,2013-03-01 12:32:00,
2013-03-01 07:42:00,30.0,26.0,-100.00,WSW,255,0.0,0.0,87,-99.99,,,-99.99,,2013-03-01 12:42:00,
2013-03-01 07:52:00,30.0,27.0,-100.00,West,275,0.0,1.0,88,-99.99,,,-99.99,,2013-03-01 12:52:00,
2013-03-01 08:01:00,30.0,28.0,-100.00,NW,305,0.0,1.0,89,-99.99,,,-99.99,,2013-03-01 13:01:00,
2013-03-01 08:11:00,32.0,29.0,-100.00,West,275,0.0,1.0,88,-99.99,,,-99.99,,2013-03-01 13:11:00,
2013-03-01 08:22:00,32.0,29.0,-100.00,WSW,245,0.0,1.0,87,-99.99,,,-99.99,,2013-03-01 13:22:00,
2013-03-01 08:32:00,33.0,29.0,-100.00,South,180,0.0,0.0,85,-99.99,,,-99.99,,2013-03-01 13:32:00,
2013-03-01 08:42:00,35.0,30.0,-100.00,SSW,205,0.0,1.0,82,-99.99,,,-99.99,,2013-03-01 13:42:00,
2013-03-01 08:52:00,37.0,31.0,-100.00,North,355,1.0,2.0,78,-99.99,,,-99.99,,2013-03-01 13:52:00,
2013-03-01 09:02:00,38.0,30.0,-100.00,SW,235,1.0,2.0,74,-99.99,,,-99.99,,2013-03-01 14:02:00,
2013-03-01 09:11:00,40.0,31.0,-100.00,WNW,300,1.0,4.0,68,-99.99,,,-99.99,,2013-03-01 14:11:00,
2013-03-01 09:22:00,42.0,31.0,-100.00,West,270,3.0,4.0,64,-99.99,,,-99.99,,2013-03-01 14:22:00,
2013-03-01 09:32:00,43.0,29.0,-100.00,WNW,295,2.0,4.0,58,-99.99,,,-99.99,,2013-03-01 14:32:00,
2013-03-01 09:42:00,42.0,29.0,-100.00,SW,230,2.0,5.0,58,-99.99,,,-99.99,,2013-03-01 14:42:00,
2013-03-01 09:52:00,43.0,28.0,-100.00,SW,235,5.0,7.0,55,-99.99,,,-99.99,,2013-03-01 14:52:00,
2013-03-01 10:02:00,42.0,27.0,-100.00,WSW,255,4.0,9.0,55,-99.99,,,-99.99,,2013-03-01 15:02:00,
2013-03-01 10:11:00,42.0,27.0,-100.00,WSW,255,4.0,9.0,55,-99.99,,,-99.99,,2013-03-01 15:11:00,
2013-03-01 10:21:00,45.0,28.0,-100.00,WNW,290,5.0,8.0,51,-99.99,,,-99.99,,2013-03-01 15:21:00,
2013-03-01 10:32:00,45.0,28.0,-100.00,West,265,4.0,8.0,50,-99.99,,,-99.99,,2013-03-01 15:32:00,
2013-03-01 10:42:00,45.0,27.0,-100.00,West,260,4.0,6.0,49,-99.99,,,-99.99,,2013-03-01 15:42:00,
2013-03-01 10:52:00,45.0,27.0,-100.00,WSW,245,1.0,4.0,49,-99.99,,,-99.99,,2013-03-01 15:52:00,
2013-03-01 11:01:00,46.0,27.0,-100.00,SW,225,4.0,6.0,47,-99.99,,,-99.99,,2013-03-01 16:01:00,
2013-03-01 11:11:00,45.0,26.0,-100.00,South,175,2.0,7.0,48,-99.99,,,-99.99,,2013-03-01 16:11:00,
2013-03-01 11:22:00,45.0,27.0,-100.00,SE,145,2.0,6.0,48,-99.99,,,-99.99,,2013-03-01 16:22:00,
2013-03-01 11:32:00,48.0,28.0,-100.00,West,260,4.0,9.0,47,-99.99,,,-99.99,,2013-03-01 16:32:00,
2013-03-01 11:42:00,48.0,27.0,-100.00,SW,215,1.0,9.0,45,-99.99,,,-99.99,,2013-03-01 16:42:00,
2013-03-01 11:52:00,48.0,28.0,-100.00,North,5,4.0,8.0,45,-99.99,,,-99.99,,2013-03-01 16:52:00,
2013-03-01 12:01:00,49.0,28.0,-100.00,NNW,330,3.0,8.0,43,-99.99,,,-99.99,,2013-03-01 17:01:00,
2013-03-01 12:11:00,49.0,27.0,-100.00,West,260,3.0,6.0,43,-99.99,,,-99.99,,2013-03-01 17:11:00,
2013-03-01 12:21:00,51.0,29.0,-100.00,NW,320,1.0,11.0,42,-99.99,,,-99.99,,2013-03-01 17:21:00,
2013-03-01 12:32:00,50.0,27.0,-100.00,WSW,250,4.0,9.0,41,-99.99,,,-99.99,,2013-03-01 17:32:00,
2013-03-01 12:42:00,49.0,27.0,-100.00,SE,125,4.0,9.0,42,-99.99,,,-99.99,,2013-03-01 17:42:00,
2013-03-01 12:52:00,52.0,29.0,-100.00,SW,215,2.0,7.0,42,-99.99,,,-99.99,,2013-03-01 17:52:00,
2013-03-01 13:02:00,52.0,29.0,-100.00,WSW,255,3.0,11.0,40,-99.99,,,-99.99,,2013-03-01 18:02:00,
2013-03-01 13:12:00,54.0,29.0,-100.00,NNW,345,3.0,8.0,39,-99.99,,,-99.99,,2013-03-01 18:12:00,
2013-03-01 13:22:00,53.0,28.0,-100.00,West,275,6.0,9.0,38,-99.99,,,-99.99,,2013-03-01 18:22:00,
2013-03-01 13:32:00,50.0,27.0,-100.00,NNW,330,6.0,10.0,40,-99.99,,,-99.99,,2013-03-01 18:32:00,
2013-03-01 13:42:00,51.0,28.0,-100.00,North,0,4.0,9.0,40,-99.99,,,-99.99,,2013-03-01 18:42:00,
2013-03-01 13:52:00,53.0,29.0,-100.00,NW,305,2.0,6.0,40,-99.99,,,-99.99,,2013-03-01 18:52:00,
2013-03-01 14:02:00,52.0,28.0,-100.00,West,260,7.0,12.0,39,-99.99,,,-99.99,,2013-03-01 19:02:00,
2013-03-01 14:11:00,53.0,28.0,-100.00,West,280,3.0,14.0,38,-99.99,,,-99.99,,2013-03-01 19:11:00,
2013-03-01 14:21:00,52.0,27.0,-100.00,North,0,3.0,13.0,38,-99.99,,,-99.99,,2013-03-01 19:21:00,
2013-03-01 14:32:00,51.0,27.0,-100.00,West,275,5.0,11.0,38,-99.99,,,-99.99,,2013-03-01 19:32:00,
2013-03-01 14:42:00,51.0,27.0,-100.00,West,260,4.0,9.0,39,-99.99,,,-99.99,,2013-03-01 19:42:00,
2013-03-01 14:51:00,51.0,28.0,-100.00,NW,315,1.0,11.0,40,-99.99,,,-99.99,,2013-03-01 19:51:00,
2013-03-01 15:01:00,50.0,27.0,-100.00,NW,320,2.0,9.0,40,-99.99,,,-99.99,,2013-03-01 20:01:00,
2013-03-01 15:11:00,50.0,27.0,-100.00,West,265,4.0,6.0,40,-99.99,,,-99.99,,2013-03-01 20:11:00,
2013-03-01 15:21:00,50.0,26.0,-100.00,West,265,4.0,7.0,40,-99.99,,,-99.99,,2013-03-01 20:21:00,
2013-03-01 15:32:00,50.0,27.0,-100.00,West,275,4.0,11.0,40,-99.99,,,-99.99,,2013-03-01 20:32:00,
2013-03-01 15:42:00,50.0,27.0,-100.00,West,275,4.0,11.0,40,-99.99,,,-99.99,,2013-03-01 20:42:00,
2013-03-01 15:52:00,51.0,27.0,-100.00,NNE,20,2.0,7.0,40,-99.99,,,-99.99,,2013-03-01 20:52:00,
2013-03-01 16:02:00,50.0,27.0,-100.00,SSW,200,1.0,4.0,40,-99.99,,,-99.99,,2013-03-01 21:02:00,
2013-03-01 16:11:00,51.0,27.0,-100.00,NW,320,4.0,7.0,40,-99.99,,,-99.99,,2013-03-01 21:11:00,
2013-03-01 16:21:00,50.0,27.0,-100.00,East,85,4.0,7.0,40,-99.99,,,-99.99,,2013-03-01 21:21:00,
2013-03-01 16:32:00,51.0,27.0,-100.00,NNW,340,1.0,4.0,40,-99.99,,,-99.99,,2013-03-01 21:32:00,
2013-03-01 16:42:00,50.0,27.0,-100.00,NNE,20,1.0,8.0,40,-99.99,,,-99.99,,2013-03-01 21:42:00,
2013-03-01 16:52:00,50.0,27.0,-100.00,NNW,340,0.0,4.0,40,-99.99,,,-99.99,,2013-03-01 21:52:00,
2013-03-01 17:01:00,50.0,27.0,-100.00,NW,325,2.0,6.0,40,-99.99,,,-99.99,,2013-03-01 22:01:00,
2013-03-01 17:12:00,50.0,27.0,-100.00,North,10,1.0,8.0,40,-99.99,,,-99.99,,2013-03-01 22:12:00,
2013-03-01 17:22:00,50.0,27.0,-100.00,North,0,1.0,7.0,41,-99.99,,,-99.99,,2013-03-01 22:22:00,
2013-03-01 17:32:00,50.0,27.0,-100.00,ENE,65,3.0,6.0,41,-99.99,,,-99.99,,2013-03-01 22:32:00,
2013-03-01 17:42:00,50.0,27.0,-100.00,ESE,115,0.0,6.0,41,-99.99,,,-99.99,,2013-03-01 22:42:00,
2013-03-01 17:51:00,49.0,27.0,-100.00,East,90,6.0,14.0,42,-99.99,,,-99.99,,2013-03-01 22:51:00,
2013-03-01 18:01:00,48.0,27.0,-100.00,ENE,60,4.0,9.0,43,-99.99,,,-99.99,,2013-03-01 23:01:00,
2013-03-01 18:11:00,48.0,27.0,-100.00,ENE,65,4.0,9.0,44,-99.99,,,-99.99,,2013-03-01 23:11:00,
2013-03-01 18:21:00,47.0,27.0,-100.00,ENE,75,4.0,10.0,45,-99.99,,,-99.99,,2013-03-01 23:21:00,
2013-03-01 18:32:00,47.0,27.0,-100.00,East,90,4.0,9.0,45,-99.99,,,-99.99,,2013-03-01 23:32:00,
2013-03-01 18:42:00,47.0,27.0,-100.00,SE,135,1.0,8.0,46,-99.99,,,-99.99,,2013-03-01 23:42:00,
2013-03-01 18:52:00,46.0,27.0,-100.00,East,80,3.0,8.0,46,-99.99,,,-99.99,,2013-03-01 23:52:00,
2013-03-01 19:02:00,46.0,27.0,-100.00,SE,145,2.0,9.0,47,-99.99,,,-99.99,,2013-03-02 00:02:00,
2013-03-01 19:12:00,46.0,27.0,-100.00,East,100,1.0,7.0,48,-99.99,,,-99.99,,2013-03-02 00:12:00,
2013-03-01 19:22:00,45.0,27.0,-100.00,East,90,2.0,8.0,48,-99.99,,,-99.99,,2013-03-02 00:22:00,
2013-03-01 19:32:00,45.0,27.0,-100.00,East,90,2.0,8.0,48,-99.99,,,-99.99,,2013-03-02 00:32:00,
2013-03-01 19:42:00,45.0,26.0,-100.00,NNE,15,1.0,10.0,48,-99.99,,,-99.99,,2013-03-02 00:42:00,
2013-03-01 19:52:00,45.0,26.0,-100.00,North,0,2.0,10.0,48,-99.99,,,-99.99,,2013-03-02 00:52:00,
2013-03-01 20:01:00,45.0,26.0,-100.00,East,80,1.0,6.0,48,-99.99,,,-99.99,,2013-03-02 01:01:00,
2013-03-01 20:11:00,44.0,26.0,-100.00,East,90,1.0,4.0,48,-99.99,,,-99.99,,2013-03-02 01:11:00,
2013-03-01 20:21:00,44.0,26.0,-100.00,ESE,105,1.0,6.0,48,-99.99,,,-99.99,,2013-03-02 01:21:00,
2013-03-01 20:32:00,44.0,26.0,-100.00,East,80,4.0,6.0,48,-99.99,,,-99.99,,2013-03-02 01:32:00,
2013-03-01 20:42:00,44.0,25.0,-100.00,SSE,160,0.0,4.0,48,-99.99,,,-99.99,,2013-03-02 01:42:00,
2013-03-01 20:52:00,44.0,26.0,-100.00,SSW,205,0.0,4.0,49,-99.99,,,-99.99,,2013-03-02 01:52:00,
2013-03-01 21:01:00,44.0,26.0,-100.00,ENE,75,1.0,6.0,49,-99.99,,,-99.99,,2013-03-02 02:01:00,
2013-03-01 21:11:00,44.0,26.0,-100.00,ESE,120,1.0,5.0,50,-99.99,,,-99.99,,2013-03-02 02:11:00,
2013-03-01 21:22:00,44.0,26.0,-100.00,ESE,110,1.0,6.0,50,-99.99,,,-99.99,,2013-03-02 02:22:00,
2013-03-01 21:32:00,44.0,26.0,-100.00,East,85,1.0,5.0,50,-99.99,,,-99.99,,2013-03-02 02:32:00,
2013-03-01 21:42:00,44.0,26.0,-100.00,East,90,1.0,4.0,50,-99.99,,,-99.99,,2013-03-02 02:42:00,
2013-03-01 21:52:00,43.0,26.0,-100.00,East,90,3.0,6.0,50,-99.99,,,-99.99,,2013-03-02 02:52:00,
2013-03-01 22:02:00,43.0,26.0,-100.00,East,90,3.0,6.0,50,-99.99,,,-99.99,,2013-03-02 03:02:00,
2013-03-01 22:11:00,43.0,26.0,-100.00,ESE,115,1.0,3.0,51,-99.99,,,-99.99,,2013-03-02 03:11:00,
2013-03-01 22:22:00,43.0,26.0,-100.00,ESE,115,0.0,5.0,51,-99.99,,,-99.99,,2013-03-02 03:22:00,
2013-03-01 22:32:00,43.0,26.0,-100.00,East,80,1.0,2.0,51,-99.99,,,-99.99,,2013-03-02 03:32:00,
2013-03-01 22:42:00,43.0,26.0,-100.00,East,80,2.0,4.0,51,-99.99,,,-99.99,,2013-03-02 03:42:00,
2013-03-01 22:52:00,43.0,26.0,-100.00,East,80,2.0,5.0,51,-99.99,,,-99.99,,2013-03-02 03:52:00,
2013-03-01 23:02:00,43.0,26.0,-100.00,ESE,115,0.0,4.0,51,-99.99,,,-99.99,,2013-03-02 04:02:00,
2013-03-01 23:12:00,43.0,26.0,-100.00,ENE,70,1.0,4.0,51,-99.99,,,-99.99,,2013-03-02 04:12:00,
2013-03-01 23:22:00,43.0,26.0,-100.00,NNE,15,1.0,5.0,51,-99.99,,,-99.99,,2013-03-02 04:22:00,
2013-03-01 23:32:00,43.0,26.0,-100.00,North,0,1.0,5.0,51,-99.99,,,-99.99,,2013-03-02 04:32:00,
2013-03-01 23:42:00,43.0,26.0,-100.00,East,85,1.0,5.0,51,-99.99,,,-99.99,,2013-03-02 04:42:00,
2013-03-01 23:52:00,43.0,26.0,-100.00,East,95,2.0,6.0,51,-99.99,,,-99.99,,2013-03-02 04:52:00,